Station Historical Data
Daily Summary for February 26, 2012 Units:  English    Metric   Both
« Previous Day
Next Day »
Daily Weekly Monthly Yearly Custom
  High: Low: Average:
Temperature: 61.3 °F 31.6 °F 46.6 °F
Dew Point: 32.3 °F 15.8 °F 24.6 °F
Humidity: 62% 26% 43%
Wind Speed: 14.0mph 0.0mph 4.4mph
Wind Gust: 19.0mph - -
Wind- - ESE
Pressure: 30.40 in 30.21 in -
Precipitation: 0.00 in    
Historical Graphs
 
 
Tabular Data for February 26, 2012
Time Temperature Dew Point Pressure Wind Wind Speed Wind Gust Humidity Rainfall Rate (Hourly) Conditions
00:00 38.3 °F 16.1 °F 30.34 in NNE 1.0 mph 2.0 mph 40% 0.00 in
00:01 38.3 °F 16.1 °F 30.34 in NNE 1.0 mph 2.0 mph 40% 0.00 in
00:06 38.1 °F 16.5 °F 30.34 in NNE 1.0 mph 2.0 mph 41% 0.00 in
00:11 38.1 °F 15.9 °F 30.33 in NNE 1.0 mph 3.0 mph 40% 0.00 in
00:16 37.9 °F 15.8 °F 30.33 in NNE 2.0 mph 2.0 mph 40% 0.00 in
00:21 37.7 °F 16.1 °F 30.33 in NNE 2.0 mph 3.0 mph 41% 0.00 in
00:27 37.6 °F 16.0 °F 30.33 in NE 2.0 mph 4.0 mph 41% 0.00 in
00:32 37.3 °F 16.3 °F 30.33 in NNE 4.0 mph 5.0 mph 42% 0.00 in
00:37 37.1 °F 16.7 °F 30.32 in NNE 4.0 mph 5.0 mph 43% 0.00 in
00:42 36.9 °F 17.0 °F 30.33 in NE 4.0 mph 5.0 mph 44% 0.00 in
00:47 36.7 °F 17.4 °F 30.32 in NNE 3.0 mph 6.0 mph 45% 0.00 in
00:52 36.6 °F 17.3 °F 30.32 in NNE 3.0 mph 5.0 mph 45% 0.00 in
00:57 36.3 °F 17.5 °F 30.32 in NE 3.0 mph 5.0 mph 46% 0.00 in
01:02 36.4 °F 17.6 °F 30.32 in NE 4.0 mph 5.0 mph 46% 0.00 in
01:07 36.4 °F 18.1 °F 30.32 in NE 3.0 mph 7.0 mph 47% 0.00 in
01:12 36.5 °F 18.2 °F 30.33 in ENE 2.0 mph 6.0 mph 47% 0.00 in
01:17 36.5 °F 18.7 °F 30.33 in East 2.0 mph 4.0 mph 48% 0.00 in
01:22 36.5 °F 18.7 °F 30.33 in ENE 3.0 mph 5.0 mph 48% 0.00 in
01:27 36.4 °F 19.1 °F 30.33 in ENE 3.0 mph 4.0 mph 49% 0.00 in
01:32 36.4 °F 19.1 °F 30.33 in ENE 1.0 mph 6.0 mph 49% 0.00 in
01:37 36.4 °F 19.1 °F 30.33 in NE 2.0 mph 6.0 mph 49% 0.00 in
01:42 36.2 °F 19.4 °F 30.33 in NE 2.0 mph 3.0 mph 50% 0.00 in
01:47 36.0 °F 19.6 °F 30.33 in East 1.0 mph 3.0 mph 51% 0.00 in
01:52 35.8 °F 19.5 °F 30.33 in East 1.0 mph 3.0 mph 51% 0.00 in
01:57 35.7 °F 19.4 °F 30.33 in East 3.0 mph 5.0 mph 51% 0.00 in
02:02 35.9 °F 20.0 °F 30.33 in NE 2.0 mph 5.0 mph 52% 0.00 in
02:07 35.7 °F 19.8 °F 30.33 in ENE 2.0 mph 4.0 mph 52% 0.00 in
02:12 35.7 °F 19.8 °F 30.32 in NE 3.0 mph 5.0 mph 52% 0.00 in
02:18 35.9 °F 19.5 °F 30.33 in NNE 4.0 mph 6.0 mph 51% 0.00 in
02:23 36.0 °F 20.1 °F 30.33 in NE 4.0 mph 5.0 mph 52% 0.00 in
02:28 35.9 °F 20.0 °F 30.33 in ENE 3.0 mph 4.0 mph 52% 0.00 in
02:33 35.9 °F 20.0 °F 30.33 in ENE 2.0 mph 4.0 mph 52% 0.00 in
02:38 35.9 °F 20.0 °F 30.33 in East 2.0 mph 4.0 mph 52% 0.00 in
02:43 35.7 °F 20.3 °F 30.33 in East 1.0 mph 3.0 mph 53% 0.00 in
02:48 35.6 °F 20.2 °F 30.32 in NE 2.0 mph 4.0 mph 53% 0.00 in
02:53 35.5 °F 20.1 °F 30.33 in NE 2.0 mph 3.0 mph 53% 0.00 in
02:58 35.5 °F 20.1 °F 30.33 in ENE 2.0 mph 3.0 mph 53% 0.00 in
03:03 35.3 °F 19.9 °F 30.33 in NE 3.0 mph 3.0 mph 53% 0.00 in
03:08 35.2 °F 20.2 °F 30.33 in NE 2.0 mph 4.0 mph 54% 0.00 in
03:13 34.9 °F 20.4 °F 30.33 in NE 2.0 mph 4.0 mph 55% 0.00 in
03:18 35.0 °F 20.0 °F 30.33 in NE 2.0 mph 3.0 mph 54% 0.00 in
03:23 35.1 °F 20.1 °F 30.33 in NE 2.0 mph 3.0 mph 54% 0.00 in
03:28 35.1 °F 19.7 °F 30.33 in ENE 4.0 mph 4.0 mph 53% 0.00 in
03:33 35.2 °F 19.8 °F 30.32 in NE 3.0 mph 5.0 mph 53% 0.00 in
03:38 35.3 °F 19.9 °F 30.32 in East 1.0 mph 4.0 mph 53% 0.00 in
03:43 35.2 °F 19.8 °F 30.33 in Calm   3.0 mph 53% 0.00 in
03:48 35.1 °F 20.1 °F 30.32 in East 1.0 mph 3.0 mph 54% 0.00 in
03:53 34.9 °F 20.0 °F 30.32 in NE 2.0 mph 2.0 mph 54% 0.00 in
03:58 34.8 °F 20.3 °F 30.32 in East 4.0 mph 4.0 mph 55% 0.00 in
04:03 34.8 °F 20.3 °F 30.32 in East 2.0 mph 3.0 mph 55% 0.00 in
04:08 34.7 °F 20.2 °F 30.32 in Calm   4.0 mph 55% 0.00 in
04:13 34.6 °F 20.1 °F 30.32 in East 1.0 mph 3.0 mph 55% 0.00 in
04:18 34.6 °F 20.1 °F 30.32 in ENE 1.0 mph 4.0 mph 55% 0.00 in
04:23 34.5 °F 20.4 °F 30.32 in Calm   3.0 mph 56% 0.00 in
04:28 34.4 °F 20.3 °F 30.32 in East 3.0 mph 5.0 mph 56% 0.00 in
04:33 34.4 °F 20.3 °F 30.32 in East 4.0 mph 4.0 mph 56% 0.00 in
04:38 34.2 °F 20.6 °F 30.32 in ENE 3.0 mph 4.0 mph 57% 0.00 in
04:44 34.1 °F 20.5 °F 30.32 in NE 1.0 mph 3.0 mph 57% 0.00 in
04:49 34.1 °F 20.1 °F 30.32 in East 2.0 mph 5.0 mph 56% 0.00 in
04:54 34.1 °F 20.1 °F 30.33 in ENE 1.0 mph 3.0 mph 56% 0.00 in
04:59 34.0 °F 20.0 °F 30.32 in East 2.0 mph 3.0 mph 56% 0.00 in
05:04 34.0 °F 20.0 °F 30.32 in ENE 2.0 mph 3.0 mph 56% 0.00 in
05:09 34.1 °F 20.1 °F 30.32 in East 4.0 mph 5.0 mph 56% 0.00 in
05:14 34.1 °F 20.1 °F 30.32 in East 3.0 mph 4.0 mph 56% 0.00 in
05:19 34.0 °F 20.0 °F 30.32 in East 2.0 mph 3.0 mph 56% 0.00 in
05:24 34.0 °F 20.0 °F 30.33 in East 2.0 mph 3.0 mph 56% 0.00 in
05:29 33.7 °F 20.1 °F 30.33 in ENE 1.0 mph 3.0 mph 57% 0.00 in
05:34 33.5 °F 20.3 °F 30.33 in Calm   1.0 mph 58% 0.00 in
05:39 33.2 °F 19.6 °F 30.34 in Calm     57% 0.00 in
05:44 33.1 °F 19.5 °F 30.35 in Calm     57% 0.00 in
05:49 32.9 °F 20.5 °F 30.35 in East 1.0 mph 1.0 mph 60% 0.00 in
05:54 32.1 °F 20.2 °F 30.35 in NNE 1.0 mph 1.0 mph 61% 0.00 in
05:59 31.6 °F 20.1 °F 30.35 in Calm   1.0 mph 62% 0.00 in
06:04 31.7 °F 19.8 °F 30.35 in Calm   1.0 mph 61% 0.00 in
06:09 32.0 °F 19.7 °F 30.35 in NNE 1.0 mph 1.0 mph 60% 0.00 in
06:14 32.4 °F 19.7 °F 30.34 in ESE 1.0 mph 2.0 mph 59% 0.00 in
06:19 32.6 °F 19.9 °F 30.35 in ENE 3.0 mph 3.0 mph 59% 0.00 in
06:24 33.0 °F 19.9 °F 30.35 in NE 1.0 mph 2.0 mph 58% 0.00 in
06:29 33.2 °F 19.6 °F 30.35 in Calm   2.0 mph 57% 0.00 in
06:35 33.2 °F 19.6 °F 30.35 in ENE 1.0 mph 2.0 mph 57% 0.00 in
06:40 33.2 °F 19.6 °F 30.35 in East 2.0 mph 3.0 mph 57% 0.00 in
06:45 33.1 °F 19.9 °F 30.35 in East 2.0 mph 2.0 mph 58% 0.00 in
06:50 32.9 °F 20.2 °F 30.34 in East 1.0 mph 2.0 mph 59% 0.00 in
06:55 32.8 °F 20.1 °F 30.35 in East 1.0 mph 3.0 mph 59% 0.00 in
07:00 32.7 °F 20.0 °F 30.34 in ENE 2.0 mph 3.0 mph 59% 0.00 in
07:05 32.8 °F 20.1 °F 30.34 in ENE 3.0 mph 5.0 mph 59% 0.00 in
07:10 32.9 °F 19.8 °F 30.34 in East 3.0 mph 5.0 mph 58% 0.00 in
07:15 32.9 °F 20.2 °F 30.34 in East 2.0 mph 3.0 mph 59% 0.00 in
07:20 32.7 °F 20.0 °F 30.34 in East 2.0 mph 3.0 mph 59% 0.00 in
07:25 32.5 °F 20.2 °F 30.34 in East 1.0 mph 2.0 mph 60% 0.00 in
07:30 32.3 °F 20.0 °F 30.35 in Calm   2.0 mph 60% 0.00 in
07:35 32.1 °F 19.8 °F 30.35 in East 1.0 mph 1.0 mph 60% 0.00 in
07:40 32.2 °F 20.3 °F 30.35 in East 2.0 mph 2.0 mph 61% 0.00 in
07:45 32.6 °F 20.3 °F 30.35 in ESE 1.0 mph 2.0 mph 60% 0.00 in
07:46 32.7 °F 20.4 °F 30.35 in ESE 2.0 mph 2.0 mph 60% 0.00 in
07:51 32.9 °F 20.5 °F 30.36 in East 2.0 mph 3.0 mph 60% 0.00 in
07:56 33.4 °F 20.6 °F 30.36 in ESE 1.0 mph 2.0 mph 59% 0.00 in
08:01 33.7 °F 20.5 °F 30.36 in ESE 2.0 mph 3.0 mph 58% 0.00 in
08:06 34.3 °F 21.1 °F 30.36 in ESE 2.0 mph 3.0 mph 58% 0.00 in
08:11 34.7 °F 21.9 °F 30.36 in ESE 2.0 mph 3.0 mph 59% 0.00 in
08:16 35.1 °F 22.6 °F 30.37 in ESE 3.0 mph 3.0 mph 60% 0.00 in
08:21 35.5 °F 22.2 °F 30.37 in ESE 4.0 mph 5.0 mph 58% 0.00 in
08:26 36.0 °F 22.3 °F 30.37 in SE 6.0 mph 6.0 mph 57% 0.00 in
08:31 36.4 °F 22.2 °F 30.37 in SE 6.0 mph 8.0 mph 56% 0.00 in
08:36 36.8 °F 22.2 °F 30.38 in ESE 6.0 mph 7.0 mph 55% 0.00 in
08:41 37.1 °F 22.0 °F 30.38 in ESE 5.0 mph 8.0 mph 54% 0.00 in
08:46 37.6 °F 22.5 °F 30.39 in ESE 8.0 mph 9.0 mph 54% 0.00 in
08:51 38.1 °F 22.5 °F 30.39 in ESE 7.0 mph 8.0 mph 53% 0.00 in
08:56 38.7 °F 23.1 °F 30.39 in SE 5.0 mph 8.0 mph 53% 0.00 in
09:01 39.2 °F 23.1 °F 30.39 in ESE 6.0 mph 9.0 mph 52% 0.00 in
09:06 39.8 °F 23.2 °F 30.39 in ESE 7.0 mph 9.0 mph 51% 0.00 in
09:11 40.4 °F 24.2 °F 30.39 in ESE 5.0 mph 9.0 mph 52% 0.00 in
09:16 41.2 °F 24.9 °F 30.39 in SE 7.0 mph 9.0 mph 52% 0.00 in
09:21 41.9 °F 24.1 °F 30.39 in SE 7.0 mph 10.0 mph 49% 0.00 in
09:26 42.1 °F 22.8 °F 30.40 in SSE 9.0 mph 14.0 mph 46% 0.00 in
09:31 42.4 °F 24.1 °F 30.39 in ESE 7.0 mph 12.0 mph 48% 0.00 in
09:36 42.8 °F 24.0 °F 30.39 in SE 5.0 mph 10.0 mph 47% 0.00 in
09:41 43.6 °F 23.7 °F 30.39 in SSE 5.0 mph 9.0 mph 45% 0.00 in
09:47 44.0 °F 23.5 °F 30.40 in East 12.0 mph 14.0 mph 44% 0.00 in
09:52 44.3 °F 23.8 °F 30.39 in SE 9.0 mph 13.0 mph 44% 0.00 in
09:57 45.0 °F 25.5 °F 30.39 in SE 6.0 mph 9.0 mph 46% 0.00 in
10:02 45.8 °F 25.7 °F 30.39 in ESE 8.0 mph 9.0 mph 45% 0.00 in
10:07 46.0 °F 24.8 °F 30.38 in SSE 9.0 mph 11.0 mph 43% 0.00 in
10:12 46.4 °F 25.1 °F 30.38 in SE 8.0 mph 13.0 mph 43% 0.00 in
10:17 47.0 °F 25.1 °F 30.38 in SSE 10.0 mph 10.0 mph 42% 0.00 in
10:22 47.0 °F 25.1 °F 30.38 in SE 9.0 mph 13.0 mph 42% 0.00 in
10:27 47.5 °F 25.0 °F 30.38 in SE 9.0 mph 10.0 mph 41% 0.00 in
10:32 47.5 °F 25.0 °F 30.38 in SE 5.0 mph 14.0 mph 41% 0.00 in
10:37 48.0 °F 25.4 °F 30.38 in SE 10.0 mph 10.0 mph 41% 0.00 in
10:42 48.5 °F 25.3 °F 30.38 in SE 7.0 mph 11.0 mph 40% 0.00 in
10:47 49.1 °F 24.6 °F 30.38 in ESE 12.0 mph 12.0 mph 38% 0.00 in
10:52 49.3 °F 25.4 °F 30.38 in SE 12.0 mph 13.0 mph 39% 0.00 in
10:57 49.7 °F 24.5 °F 30.38 in SSE 5.0 mph 12.0 mph 37% 0.00 in
11:02 50.0 °F 24.8 °F 30.38 in SE 7.0 mph 10.0 mph 37% 0.00 in
11:07 50.4 °F 25.1 °F 30.38 in SE 9.0 mph 14.0 mph 37% 0.00 in
11:12 51.1 °F 26.4 °F 30.37 in ESE 8.0 mph 11.0 mph 38% 0.00 in
11:17 51.6 °F 25.5 °F 30.37 in SE 9.0 mph 13.0 mph 36% 0.00 in
11:22 52.0 °F 25.9 °F 30.37 in SE 7.0 mph 13.0 mph 36% 0.00 in
11:27 52.4 °F 25.6 °F 30.37 in SSE 6.0 mph 12.0 mph 35% 0.00 in
11:32 52.9 °F 25.3 °F 30.36 in SSE 11.0 mph 16.0 mph 34% 0.00 in
11:37 52.9 °F 25.3 °F 30.36 in SSE 10.0 mph 12.0 mph 34% 0.00 in
11:42 53.2 °F 24.9 °F 30.36 in SSE 7.0 mph 14.0 mph 33% 0.00 in
11:47 53.5 °F 25.8 °F 30.36 in SE 9.0 mph 11.0 mph 34% 0.00 in
11:52 53.7 °F 25.3 °F 30.36 in SSW 8.0 mph 13.0 mph 33% 0.00 in
11:58 54.0 °F 24.8 °F 30.35 in SE 5.0 mph 11.0 mph 32% 0.00 in
12:02 54.1 °F 25.6 °F 30.35 in South 9.0 mph 15.0 mph 33% 0.00 in
12:07 54.1 °F 25.6 °F 30.35 in South 4.0 mph 12.0 mph 33% 0.00 in
12:12 54.3 °F 26.5 °F 30.35 in South 9.0 mph 12.0 mph 34% 0.00 in
12:17 54.7 °F 28.3 °F 30.34 in SSE 8.0 mph 10.0 mph 36% 0.00 in
12:22 54.6 °F 28.2 °F 30.34 in South 7.0 mph 13.0 mph 36% 0.00 in
12:28 54.8 °F 27.0 °F 30.33 in SE 6.0 mph 15.0 mph 34% 0.00 in
12:33 55.1 °F 27.3 °F 30.33 in SSE 14.0 mph 14.0 mph 34% 0.00 in
12:38 55.1 °F 28.0 °F 30.33 in SSE 10.0 mph 13.0 mph 35% 0.00 in
12:43 55.7 °F 29.2 °F 30.33 in SSE 14.0 mph 14.0 mph 36% 0.00 in
12:48 56.0 °F 27.3 °F 30.33 in South 11.0 mph 13.0 mph 33% 0.00 in
12:53 55.9 °F 27.2 °F 30.33 in SE 10.0 mph 13.0 mph 33% 0.00 in
12:58 56.3 °F 28.3 °F 30.33 in ESE 4.0 mph 13.0 mph 34% 0.00 in
13:03 57.0 °F 28.2 °F 30.33 in SE 12.0 mph 15.0 mph 33% 0.00 in
13:08 56.5 °F 26.2 °F 30.32 in SE 8.0 mph 16.0 mph 31% 0.00 in
13:13 56.6 °F 26.3 °F 30.32 in SW 9.0 mph 14.0 mph 31% 0.00 in
13:18 57.0 °F 28.2 °F 30.32 in SW 6.0 mph 13.0 mph 33% 0.00 in
13:23 56.7 °F 25.6 °F 30.32 in South 6.0 mph 15.0 mph 30% 0.00 in
13:28 56.9 °F 25.0 °F 30.31 in SSW 5.0 mph 9.0 mph 29% 0.00 in
13:33 57.1 °F 26.0 °F 30.31 in SSE 6.0 mph 18.0 mph 30% 0.00 in
13:38 57.1 °F 26.8 °F 30.31 in SSW 10.0 mph 19.0 mph 31% 0.00 in
13:43 57.2 °F 26.1 °F 30.31 in SSE 9.0 mph 11.0 mph 30% 0.00 in
13:48 57.5 °F 27.1 °F 30.30 in SSW 7.0 mph 12.0 mph 31% 0.00 in
13:53 57.9 °F 27.5 °F 30.30 in South 3.0 mph 7.0 mph 31% 0.00 in
13:58 58.4 °F 26.3 °F 30.29 in South 4.0 mph 9.0 mph 29% 0.00 in
14:03 58.3 °F 27.0 °F 30.29 in SSW 7.0 mph 9.0 mph 30% 0.00 in
14:08 58.6 °F 25.6 °F 30.29 in SSW 5.0 mph 12.0 mph 28% 0.00 in
14:13 58.4 °F 27.1 °F 30.28 in SSE 8.0 mph 15.0 mph 30% 0.00 in
14:18 58.8 °F 27.5 °F 30.28 in South 6.0 mph 11.0 mph 30% 0.00 in
14:23 59.0 °F 26.8 °F 30.28 in SSE 7.0 mph 10.0 mph 29% 0.00 in
14:28 59.1 °F 26.9 °F 30.28 in SSE 9.0 mph 16.0 mph 29% 0.00 in
14:33 59.2 °F 26.1 °F 30.27 in SW 8.0 mph 14.0 mph 28% 0.00 in
14:38 59.4 °F 26.3 °F 30.27 in SSE 8.0 mph 12.0 mph 28% 0.00 in
14:43 59.3 °F 27.1 °F 30.27 in SSE 7.0 mph 10.0 mph 29% 0.00 in
14:48 59.5 °F 25.5 °F 30.27 in SE 7.0 mph 14.0 mph 27% 0.00 in
14:53 59.6 °F 26.5 °F 30.26 in South 7.0 mph 10.0 mph 28% 0.00 in
14:58 59.7 °F 25.7 °F 30.26 in SW 11.0 mph 15.0 mph 27% 0.00 in
15:03 59.9 °F 25.9 °F 30.26 in South 9.0 mph 16.0 mph 27% 0.00 in
15:08 59.8 °F 26.6 °F 30.26 in SSE 6.0 mph 13.0 mph 28% 0.00 in
15:14 60.3 °F 27.1 °F 30.26 in SE 11.0 mph 16.0 mph 28% 0.00 in
15:19 60.5 °F 28.1 °F 30.25 in SSE 6.0 mph 10.0 mph 29% 0.00 in
15:24 60.4 °F 25.4 °F 30.25 in SSW 11.0 mph 11.0 mph 26% 0.00 in
15:29 60.5 °F 26.4 °F 30.25 in South 5.0 mph 13.0 mph 27% 0.00 in
15:34 60.4 °F 27.2 °F 30.25 in South 5.0 mph 12.0 mph 28% 0.00 in
15:39 60.5 °F 27.3 °F 30.25 in SSE 7.0 mph 14.0 mph 28% 0.00 in
15:44 60.6 °F 27.3 °F 30.25 in SSW 6.0 mph 13.0 mph 28% 0.00 in
15:49 60.8 °F 27.5 °F 30.24 in SSE 6.0 mph 10.0 mph 28% 0.00 in
15:54 61.0 °F 26.8 °F 30.24 in SSE 9.0 mph 13.0 mph 27% 0.00 in
15:59 60.8 °F 28.4 °F 30.24 in SSW 9.0 mph 11.0 mph 29% 0.00 in
16:04 60.9 °F 27.6 °F 30.24 in SSW 6.0 mph 10.0 mph 28% 0.00 in
16:09 61.0 °F 27.7 °F 30.24 in SSW 7.0 mph 10.0 mph 28% 0.00 in
16:14 61.2 °F 27.9 °F 30.24 in SSE 9.0 mph 11.0 mph 28% 0.00 in
16:19 60.8 °F 28.4 °F 30.24 in SSE 7.0 mph 17.0 mph 29% 0.00 in
16:24 60.7 °F 27.4 °F 30.24 in SE 9.0 mph 15.0 mph 28% 0.00 in
16:29 60.3 °F 27.1 °F 30.23 in SSE 8.0 mph 9.0 mph 28% 0.00 in
16:34 60.7 °F 27.4 °F 30.23 in South 7.0 mph 9.0 mph 28% 0.00 in
16:40 60.9 °F 27.6 °F 30.23 in South 5.0 mph 9.0 mph 28% 0.00 in
16:45 61.2 °F 28.7 °F 30.23 in SSW 7.0 mph 8.0 mph 29% 0.00 in
16:50 61.3 °F 27.9 °F 30.23 in South 10.0 mph 10.0 mph 28% 0.00 in
16:55 61.2 °F 27.0 °F 30.23 in SE 3.0 mph 8.0 mph 27% 0.00 in
17:00 60.8 °F 27.5 °F 30.22 in SE 10.0 mph 14.0 mph 28% 0.00 in
17:05 60.4 °F 28.0 °F 30.22 in SSE 12.0 mph 12.0 mph 29% 0.00 in
17:10 60.1 °F 27.8 °F 30.22 in SE 6.0 mph 13.0 mph 29% 0.00 in
17:15 60.1 °F 27.8 °F 30.22 in SE 9.0 mph 11.0 mph 29% 0.00 in
17:20 60.1 °F 29.4 °F 30.22 in SSE 6.0 mph 12.0 mph 31% 0.00 in
17:25 59.7 °F 29.0 °F 30.22 in SE 5.0 mph 13.0 mph 31% 0.00 in
17:30 59.4 °F 28.0 °F 30.22 in SE 8.0 mph 11.0 mph 30% 0.00 in
17:35 59.1 °F 28.5 °F 30.22 in ESE 7.0 mph 11.0 mph 31% 0.00 in
17:36 59.0 °F 28.4 °F 30.22 in SSE 8.0 mph 9.0 mph 31% 0.00 in
17:41 58.8 °F 28.3 °F 30.22 in SE 9.0 mph 13.0 mph 31% 0.00 in
17:46 58.4 °F 28.7 °F 30.22 in SE 9.0 mph 9.0 mph 32% 0.00 in
17:51 58.1 °F 29.9 °F 30.22 in SE 5.0 mph 7.0 mph 34% 0.00 in
17:56 57.8 °F 28.9 °F 30.22 in SE 4.0 mph 10.0 mph 33% 0.00 in
18:01 57.6 °F 29.5 °F 30.22 in ESE 5.0 mph 5.0 mph 34% 0.00 in
18:06 57.3 °F 29.2 °F 30.22 in SE 5.0 mph 6.0 mph 34% 0.00 in
18:11 57.1 °F 29.0 °F 30.22 in SE 5.0 mph 7.0 mph 34% 0.00 in
18:16 56.9 °F 28.8 °F 30.22 in SE 4.0 mph 6.0 mph 34% 0.00 in
18:21 56.4 °F 29.1 °F 30.21 in ESE 4.0 mph 4.0 mph 35% 0.00 in
18:26 56.0 °F 29.4 °F 30.21 in SE 3.0 mph 5.0 mph 36% 0.00 in
18:31 55.5 °F 29.7 °F 30.21 in SE 4.0 mph 5.0 mph 37% 0.00 in
18:36 55.2 °F 29.4 °F 30.21 in ESE 3.0 mph 5.0 mph 37% 0.00 in
18:41 54.8 °F 29.0 °F 30.21 in ESE 3.0 mph 4.0 mph 37% 0.00 in
18:46 54.5 °F 29.4 °F 30.21 in SE 2.0 mph 4.0 mph 38% 0.00 in
18:51 54.0 °F 29.0 °F 30.21 in SE 3.0 mph 4.0 mph 38% 0.00 in
18:56 54.0 °F 28.3 °F 30.21 in SE 4.0 mph 5.0 mph 37% 0.00 in
19:01 53.9 °F 28.9 °F 30.21 in SE 3.0 mph 4.0 mph 38% 0.00 in
19:06 53.7 °F 28.7 °F 30.21 in ESE 3.0 mph 4.0 mph 38% 0.00 in
19:11 53.5 °F 28.5 °F 30.21 in SE 3.0 mph 4.0 mph 38% 0.00 in
19:16 53.5 °F 29.2 °F 30.21 in SE 3.0 mph 4.0 mph 39% 0.00 in
19:21 53.4 °F 28.5 °F 30.22 in SE 3.0 mph 4.0 mph 38% 0.00 in
19:26 53.3 °F 28.4 °F 30.22 in SE 3.0 mph 3.0 mph 38% 0.00 in
19:32 53.2 °F 28.3 °F 30.22 in ESE 3.0 mph 4.0 mph 38% 0.00 in
19:37 53.1 °F 28.2 °F 30.22 in ESE 3.0 mph 4.0 mph 38% 0.00 in
19:42 53.0 °F 28.1 °F 30.22 in SE 3.0 mph 4.0 mph 38% 0.00 in
19:47 53.1 °F 28.2 °F 30.22 in ESE 4.0 mph 5.0 mph 38% 0.00 in
19:52 52.9 °F 28.6 °F 30.22 in ESE 5.0 mph 6.0 mph 39% 0.00 in
19:57 52.6 °F 29.0 °F 30.22 in SE 4.0 mph 6.0 mph 40% 0.00 in
20:02 52.5 °F 28.9 °F 30.23 in ESE 4.0 mph 5.0 mph 40% 0.00 in
20:07 52.3 °F 29.3 °F 30.23 in ESE 4.0 mph 6.0 mph 41% 0.00 in
20:12 52.3 °F 28.7 °F 30.22 in ESE 4.0 mph 5.0 mph 40% 0.00 in
20:17 52.2 °F 29.2 °F 30.23 in SE 3.0 mph 6.0 mph 41% 0.00 in
20:22 52.0 °F 29.0 °F 30.23 in SE 3.0 mph 5.0 mph 41% 0.00 in
20:27 52.0 °F 29.0 °F 30.23 in SE 4.0 mph 5.0 mph 41% 0.00 in
20:32 52.2 °F 28.6 °F 30.23 in SE 5.0 mph 6.0 mph 40% 0.00 in
20:37 52.2 °F 29.2 °F 30.23 in SE 4.0 mph 7.0 mph 41% 0.00 in
20:42 52.1 °F 29.1 °F 30.23 in ESE 4.0 mph 7.0 mph 41% 0.00 in
20:47 52.1 °F 29.1 °F 30.23 in SE 5.0 mph 6.0 mph 41% 0.00 in
20:52 52.0 °F 28.5 °F 30.23 in SE 4.0 mph 6.0 mph 40% 0.00 in
20:57 52.0 °F 29.0 °F 30.23 in SE 4.0 mph 5.0 mph 41% 0.00 in
21:02 52.1 °F 29.1 °F 30.23 in ESE 4.0 mph 7.0 mph 41% 0.00 in
21:07 52.1 °F 28.5 °F 30.23 in ESE 6.0 mph 6.0 mph 40% 0.00 in
21:12 52.0 °F 29.0 °F 30.23 in SE 3.0 mph 6.0 mph 41% 0.00 in
21:17 51.8 °F 29.5 °F 30.23 in ESE 5.0 mph 5.0 mph 42% 0.00 in
21:22 51.6 °F 28.7 °F 30.23 in SE 5.0 mph 6.0 mph 41% 0.00 in
21:27 51.6 °F 29.3 °F 30.24 in SE 3.0 mph 5.0 mph 42% 0.00 in
21:32 51.5 °F 28.6 °F 30.25 in SSW 1.0 mph 3.0 mph 41% 0.00 in
21:37 51.3 °F 29.0 °F 30.25 in SSE 1.0 mph 2.0 mph 42% 0.00 in
21:42 50.8 °F 29.1 °F 30.25 in Calm   1.0 mph 43% 0.00 in
21:47 50.4 °F 28.8 °F 30.25 in Calm   1.0 mph 43% 0.00 in
21:52 50.2 °F 28.6 °F 30.26 in Calm   1.0 mph 43% 0.00 in
21:57 49.6 °F 29.1 °F 30.26 in Calm   1.0 mph 45% 0.00 in
22:02 49.2 °F 28.8 °F 30.26 in Calm     45% 0.00 in
22:07 49.0 °F 28.0 °F 30.26 in Calm     44% 0.00 in
22:12 49.0 °F 28.0 °F 30.27 in Calm   1.0 mph 44% 0.00 in
22:17 49.2 °F 28.2 °F 30.27 in SSE 1.0 mph 1.0 mph 44% 0.00 in
22:22 49.5 °F 28.5 °F 30.27 in Calm   1.0 mph 44% 0.00 in
22:27 49.5 °F 28.0 °F 30.27 in Calm     43% 0.00 in
22:32 49.6 °F 28.0 °F 30.27 in SSE 1.0 mph 1.0 mph 43% 0.00 in
22:38 49.7 °F 28.1 °F 30.27 in SSE 2.0 mph 2.0 mph 43% 0.00 in
22:43 49.6 °F 28.6 °F 30.28 in SSE 2.0 mph 2.0 mph 44% 0.00 in
22:48 49.7 °F 28.7 °F 30.28 in SE 2.0 mph 4.0 mph 44% 0.00 in
22:53 49.7 °F 29.2 °F 30.28 in SSE 2.0 mph 2.0 mph 45% 0.00 in
22:58 49.2 °F 29.3 °F 30.28 in SSE 1.0 mph 2.0 mph 46% 0.00 in
23:03 48.5 °F 29.7 °F 30.28 in SSE 1.0 mph 1.0 mph 48% 0.00 in
23:08 48.2 °F 29.5 °F 30.28 in SSE 1.0 mph 1.0 mph 48% 0.00 in
23:13 48.2 °F 29.5 °F 30.28 in SSE 1.0 mph 1.0 mph 48% 0.00 in
23:18 48.2 °F 28.9 °F 30.28 in SSE 1.0 mph 2.0 mph 47% 0.00 in
23:23 48.4 °F 29.6 °F 30.28 in SSE 1.0 mph 2.0 mph 48% 0.00 in
23:28 48.2 °F 30.0 °F 30.28 in SSE 4.0 mph 4.0 mph 49% 0.00 in
23:33 48.5 °F 30.7 °F 30.28 in SSE 2.0 mph 3.0 mph 50% 0.00 in
23:38 48.7 °F 31.9 °F 30.28 in South 3.0 mph 4.0 mph 52% 0.00 in
23:43 49.0 °F 32.2 °F 30.28 in SSE 2.0 mph 3.0 mph 52% 0.00 in
23:48 49.2 °F 32.3 °F 30.29 in SSE 3.0 mph 4.0 mph 52% 0.00 in
23:53 49.4 °F 31.1 °F 30.28 in SE 2.0 mph 4.0 mph 49% 0.00 in
23:58 49.8 °F 31.9 °F 30.28 in SE 2.0 mph 3.0 mph 50% 0.00 in
Compliments of Weather Underground